This demonstration page uses our WeatherBlox Daily Observations layout. Learn more.

Left ArrowRight Arrow

Hourly Observations for November 27, 2015

Temp ( °F °C ) Dew Point ( °F °C ) Humidity (%) Winds ( mph kmh ) Pressure ( in mb ) Visibility ( mi km ) Precip ( " mm )
12:53 am 00:53 Clear -5 -20.6 -8 -22.2 87 87 ESE 6 9 30.63 1037 10 16 0.00 0.00
1:53 am 01:53 Clear -6 -21.1 -9 -22.8 86 86 E 5 7 30.61 1037 10 16 0.00 0.00
2:53 am 02:53 Clear -6 -21.1 -9 -22.8 86 86 ESE 5 7 30.60 1036 10 16 0.00 0.00
3:53 am 03:53 Clear -6 -21.1 -8 -22.2 91 91 E 7 11 30.61 1037 10 16 0.00 0.00
4:53 am 04:53 Clear -6 -21.1 -8 -22.2 91 91 ENE 3 6 30.61 1037 10 16 0.00 0.00
5:53 am 05:53 Clear -5 -20.6 -8 -22.2 87 87 Calm 30.61 1037 10 16 0.00 0.00
6:53 am 06:53 Clear -8 -22.2 -11 -23.9 86 86 SE 5 7 30.61 1037 10 16 0.00 0.00
7:53 am 07:53 Sunny -6 -21.1 -9 -22.8 86 86 Calm 30.60 1036 10 16 0.00 0.00
8:53 am 08:53 Sunny -2 -18.9 -7 -21.7 79 79 W 3 6 30.60 1036 10 16 0.00 0.00
9:53 am 09:53 Sunny 6 -14.4 2 -16.7 83 83 WNW 6 9 30.58 1036 10 16 0.00 0.00
10:22 am 10:22 Sunny with Light Freezing Rain 10 -12 3 -16 72 72 W 10 17 30.59 1036 N/A 0.00 0.00
10:29 am 10:29 Sunny with Light Snow 10 -12.2 4 -15.6 76 76 W 12 19 30.59 1036 N/A 0.00 0.00
10:53 am 10:53 Sunny 12 -11.1 5 -15 73 73 WSW 13 20 30.56 1035 N/A 0.00 0.00
11:53 am 11:53 Sunny N/A N/A N/A S 5 7 N/A N/A 0.00 0.00
12:53 pm 12:53 Sunny N/A N/A N/A WSW 14 22 N/A 10 16 0.00 0.00
1:53 pm 13:53 Sunny 21 -6.1 11 -11.7 65 65 WSW 14 22 30.50 1033 10 16 0.00 0.00
2:53 pm 14:53 Sunny 21 -6.1 11 -11.7 65 65 WSW 16 26 30.49 1032 10 16 0.00 0.00
3:53 pm 15:53 Sunny 20 -6.7 11 -11.7 68 68 SSW 18 30 30.47 1032 10 16 0.00 0.00
4:53 pm 16:53 Clear 16 -8.9 8 -13.3 71 71 W 7 11 30.48 1032 10 16 0.00 0.00
5:53 pm 17:53 Clear 15 -9.4 7 -13.9 70 70 SW 13 20 30.47 1032 10 16 0.00 0.00
6:53 pm 18:53 Clear 13 -10.6 6 -14.4 74 74 SW 9 15 30.49 1032 10 16 0.00 0.00
7:53 pm 19:53 Clear 10 -12.2 4 -15.6 76 76 WSW 10 17 30.49 1032 10 16 0.00 0.00
8:53 pm 20:53 Clear 10 -12.2 4 -15.6 76 76 WSW 7 11 30.48 1032 10 16 0.00 0.00
9:53 pm 21:53 Clear 11 -11.7 4 -15.6 73 73 SW 12 19 30.45 1031 10 16 0.00 0.00
10:53 pm 22:53 Clear 11 -11.7 4 -15.6 73 73 WSW 6 9 30.45 1031 10 16 0.00 0.00
11:53 pm 23:53 Clear 9 -12.8 3 -16.1 77 77 SW 14 22 30.56 1035 10 16 0.00 0.00

Powered by AerisWeather